This is the latest recevied weather packets stored in our database for station/object KC7UNY-13. If no packets are shown the sender has not sent any weather packets the latest 10 day(s).
| Time | Temp. | Humidity | Pressure | Rain* | Wind** | Luminosity | Snow |
|---|---|---|---|---|---|---|---|
| 1777138675 | 25.56° C | 26% | 1010.6 hPa | 0 mm | - | 331 W/m² | - |
| 1777138370 | 25.56° C | 26% | 1010.4 hPa | 0 mm | - | 321 W/m² | - |
| 1777138067 | 25.56° C | 26% | 1010.6 hPa | 0 mm | - | 273 W/m² | - |
| 1777137763 | 25.56° C | 27% | 1010.6 hPa | 0 mm | - | 254 W/m² | - |
| 1777137459 | 25.56° C | 26% | 1010.4 hPa | 0 mm | - | 223 W/m² | - |
| 1777137157 | 25.56° C | 26% | 1010.6 hPa | 0 mm | - | 206 W/m² | - |
| 1777136853 | 25.56° C | 27% | 1010.4 hPa | 0 mm | - | 229 W/m² | - |
| 1777136550 | 26.11° C | 27% | 1010.4 hPa | 0 mm | - | 271 W/m² | - |
| 1777136248 | 26.11° C | 25% | 1010.2 hPa | 0 mm | - | 346 W/m² | - |
| 1777135946 | 25.56° C | 25% | 1010.1 hPa | 0 mm | - | 409 W/m² | - |
| 1777135640 | 26.11° C | 25% | 1010.2 hPa | 0 mm | - | 402 W/m² | - |
| 1777135337 | 26.11° C | 25% | 1010.3 hPa | 0 mm | - | 422 W/m² | - |
| 1777135034 | 26.11° C | 25% | 1010.2 hPa | 0 mm | - | 384 W/m² | - |
| 1777134731 | 25.56° C | 25% | 1010 hPa | 0 mm | - | 351 W/m² | - |
| 1777134427 | 26.11° C | 25% | 1010.2 hPa | 0 mm | - | 349 W/m² | - |
| 1777134123 | 26.11° C | 25% | 1010.3 hPa | 0 mm | - | 318 W/m² | - |
| 1777133820 | 26.11° C | 27% | 1010.1 hPa | 0 mm | - | 356 W/m² | - |
| 1777133515 | 25.56° C | 27% | 1010 hPa | 0 mm | - | 317 W/m² | - |
| 1777133210 | 25° C | 28% | 1010.1 hPa | 0 mm | - | 334 W/m² | - |
| 1777132905 | 25° C | 27% | 1010.1 hPa | 0 mm | - | 302 W/m² | - |
| 1777132602 | 25° C | 28% | 1009.9 hPa | 0 mm | - | 287 W/m² | - |
| 1777132298 | 25° C | 29% | 1009.8 hPa | 0 mm | - | 319 W/m² | - |
| 1777131994 | 24.44° C | 29% | 1010.1 hPa | 0 mm | - | 262 W/m² | - |
| 1777131693 | 24.44° C | 29% | 1010 hPa | 0 mm | - | 250 W/m² | - |
| 1777131387 | 24.44° C | 29% | 1009.9 hPa | 0 mm | - | 244 W/m² | - |
* Rain latest hour (hover to see other rain measurements)
** Current wind speed in m/s (hover to see current wind gust speed)